Location: Egerton
(51.1833°N, 0.7333°E)
Time: 06:15:18
(UTC+00:00)

Daily predictions for brighter satellites

Satellite Brightness Start Highest point End
(mag) Time Altitude Azimuth Time Altitude Azimuth Time Altitude Azimuth
CORIOLIS 4.2 16:57:52 10° SSE 17:03:12 65° ENE 17:08:33 10° N
RESURS DK-1 2.4 17:00:43 10° SSW 17:04:52 84° ESE 17:09:01 10° NNE
Cosmos 2263 Rocket 2.3 16:59:46 10° SSW 17:05:23 63° ESE 17:10:59 10° NE
Cosmos 1455 3.8 17:05:22 10° NNE 17:07:45 16° ENE 17:10:09 10° ESE
Meteor 2-5 Rocket 3.8 17:03:42 10° S 17:09:06 56° E 17:14:31 10° NNE
USA 229 DEB 4.5 17:04:54 10° NW 17:11:22 37° NNE 17:18:12 10° E
USA 229 4.5 17:05:00 10° NW 17:11:27 37° NNE 17:18:16 10° E
Cosmos 1606 Rocket 3.6 17:07:54 10° N 17:12:14 56° ENE 17:16:34 10° SSE
NOAA 11 4.2 17:06:58 10° SSE 17:12:25 70° ENE 17:17:55 10° N
Cosmos 1300 2.6 17:09:09 10° N 17:12:59 68° ENE 17:16:46 10° SSE
H-2A R/B 2.4 17:09:24 10° NNE 17:13:45 48° E 17:17:59 10° S
NOSS 3-4 (A) 4.0 17:10:49 10° WSW 17:16:40 54° NW 17:23:04 10° NE
NOSS 3-4 (C) 4.0 17:10:58 10° WSW 17:16:49 55° NW 17:23:13 10° NE
AQUARIUS 4.1 17:12:27 10° SSE 17:16:57 83° ENE 17:21:29 10° NNW
Cosmos 1892 Rocket 4.4 17:14:04 10° SSE 17:17:49 29° E 17:21:34 10° NNE
YAOGAN 1 3.8 17:14:41 10° ESE 17:17:49 20° ENE 17:20:58 10° NNE
GENESIS II 4.3 17:15:29 10° SSW 17:19:28 68° SE 17:23:27 10° NE
SMAP 3.2 17:14:57 10° SSE 17:19:36 83° WSW 17:24:18 10° NNW
Cosmos 2228 2.9 17:15:33 10° N 17:19:50 72° ENE 17:24:06 10° SSE
ARGOS 4.4 17:16:59 10° E 17:20:48 20° NE 17:24:39 10° N
ERS-2 4.0 17:20:30 11° ENE 17:22:11 13° E 17:24:02 10° ESE
Cosmos 1943 4.0 17:20:57 10° NW 17:26:32 57° WSW 17:32:01 10° S
NOSS 3-1 (A) 4.5 17:20:41 10° NW 17:27:00 38° NNE 17:34:20 10° E
Cosmos 1503 Rocket 4.2 17:22:12 10° SSW 17:27:35 83° WNW 17:33:01 10° NNE
CZ-4B R/B 2.5 17:25:24 10° NE 17:28:19 26° E 17:31:08 10° SSE
BREEZE-M DEB (TANK) 2.1 17:26:03 10° WSW 17:28:39 57° S 17:30:28 13° E
SKYMED 2 4.4 17:27:05 10° NNE 17:30:57 30° E 17:34:47 10° SSE
IRS-1C Rocket 4.4 17:26:23 10° SE 17:31:19 43° ENE 17:36:17 10° N
SJ 16-02 2.7 17:29:01 10° SE 17:32:09 19° E 17:34:30 13° ENE
ATLAS 2AS CENTAUR R/B 3.4 17:26:23 10° WSW 17:34:16 62° NW 17:41:56 10° NE
Cosmos 2142 Rocket 4.5 17:29:32 10° N 17:35:46 90° ESE 17:41:54 10° S
Cosmos 1833 Rocket 4.0 17:31:51 10° NNW 17:35:59 20° NE 17:38:57 14° ENE
Cosmos 158 Rocket 4.4 17:31:49 10° NNW 17:36:53 42° ENE 17:41:59 10° SE
SeaSat 1 3.8 17:32:31 10° NNE 17:37:00 35° NW 17:41:26 10° WSW
Meteor 1-24 Rocket 3.5 17:33:47 10° S 17:39:06 76° E 17:44:25 10° NNE
Cosmos 923 Rocket 4.5 17:34:09 10° NNW 17:39:13 40° NE 17:44:13 10° SE
Cosmos 2082 Rocket 3.8 17:36:17 10° N 17:39:48 16° NNE 17:42:05 13° NE
Landsat 5 3.8 17:38:32 10° N 17:42:28 61° WNW 17:46:16 10° SSW
Nadezhda 4 Rocket 4.4 17:37:22 10° SSE 17:43:05 39° E 17:48:46 10° NNE
Cosmos 1939 Rocket 2.8 17:40:07 10° SSE 17:44:14 78° ENE 17:48:19 10° N
Cosmos 2058 Rocket 3.1 17:41:31 10° N 17:46:01 62° ENE 17:50:28 10° SSE
Cosmos 1680 Rocket 4.0 17:41:19 10° NNW 17:46:11 36° NE 17:51:00 10° ESE
H-2A R/B 2.5 17:43:03 10° SE 17:47:38 37° ENE 17:52:20 10° N
CZ-4C R/B 3.1 17:42:53 10° WSW 17:48:01 46° NNW 17:53:55 11° NE
Cosmos 1315 Rocket 4.1 17:46:20 10° NNW 17:50:09 45° W 17:53:58 10° SSW
CZ-2C R/B 3.2 17:45:55 10° SSE 17:51:12 63° ENE 17:56:47 10° N
COSMOS 2455 3.0 17:47:32 10° SSW 17:53:23 55° ESE 17:58:25 14° NE
Cosmos 2227 Rocket 4.2 17:51:01 10° W 17:55:10 20° NW 17:59:19 10° NNE
Cosmos 1626 3.8 17:52:36 10° SW 17:56:00 34° WNW 17:59:26 10° N
MOS 1 Rocket 3.5 17:51:56 10° NNE 17:56:02 40° E 18:00:04 10° SSE
Feng Yun 1-1 Rocket 4.2 17:51:22 10° SSE 17:56:49 85° ENE 18:02:26 10° NNW
CZ-4 R/B 1.6 17:54:43 10° SE 17:58:39 47° ENE 18:02:30 10° N
Cosmos 1726 Rocket 4.0 17:54:28 10° NNW 17:58:48 66° W 18:03:09 10° S
Cosmos 1844 Rocket 3.2 17:54:11 10° S 17:59:25 40° ESE 18:03:17 17° NE
USA 234 3.5 17:55:48 18° ENE 18:00:43 55° N 18:07:05 10° WNW
Cosmos 1818 4.1 17:56:21 10° S 18:01:20 38° ESE 18:04:19 21° ENE
Iridium 4 Rocket 4.3 17:56:45 10° NNE 18:01:51 32° ENE 18:06:37 10° SE
Okean 1-7 Rocket 3.7 17:58:57 10° S 18:03:23 55° E 18:07:53 10° NNE
CREW DRAGON DEMO-1 DEB 3.0 18:01:03 10° W 18:03:55 62° SSW 18:05:17 27° SE
SAR-Lupe-4 4.4 18:06:12 29° E 18:06:34 29° E 18:09:43 10° SSE
Meteor 2-10 Rocket 3.7 18:02:15 10° NNW 18:07:50 83° W 18:13:09 10° S
X-37B 2.8 18:07:05 10° SSW 18:09:03 15° SSE 18:09:46 14° SE
Cosmos 1626 Rocket 4.1 18:05:44 10° SSE 18:09:43 35° E 18:12:05 20° NE
Meteor 1-21 Rocket 4.4 18:08:14 10° SSE 18:13:28 46° E 18:18:46 10° NNE
COSMO-SKYMED 1 2.5 18:14:52 10° NNE 18:19:15 85° ESE 18:23:36 10° SSW
Cosmos 2026 Rocket 4.4 18:14:29 10° SSE 18:19:57 36° E 18:25:31 10° NNE
Cosmos 2297 Rocket 4.4 18:16:51 10° WNW 18:19:58 15° NNW 18:23:05 10° N
CZ-2D R/B 3.7 18:17:35 10° S 18:21:25 63° WSW 18:25:15 10° NNW
CSL-04 Rocket 3.8 18:18:14 10° SE 18:23:27 52° ENE 18:28:47 10° N
Cosmos 2112 Rocket 4.0 18:18:57 10° NNW 18:24:10 57° ENE 18:28:48 13° SE
Cosmos 1777 Rocket 4.2 18:19:40 10° SSW 18:24:56 72° WNW 18:30:05 11° NNE
ATLAS 5 CENTAUR R/B 2.5 18:22:26 10° WSW 18:26:26 42° NNW 18:29:12 21° NNE
Lacrosse 5 2.5 18:24:29 10° WNW 18:29:26 54° SW 18:33:59 12° SE
Aureole 3 2.9 18:27:24 10° NNW 18:31:02 79° W 18:34:07 10° S
ISS -2.8 18:29:26 10° SW 18:32:21 34° SSE 18:32:21 34° SSE
SL-08 RB Rocket 3.9 18:36:35 44° E 18:37:02 46° ENE 18:41:21 10° N
Okean-O 2.7 18:33:21 10° SSE 18:37:47 81° WSW 18:42:16 10° NNW
Meteor 2-8 Rocket 4.3 18:32:12 10° N 18:38:15 65° ENE 18:44:19 10° SSE
Okean O Rocket 4.4 18:35:54 10° SW 18:39:15 21° W 18:42:37 10° NW
Meteor 2-1 Rocket 4.4 18:34:16 10° NNW 18:39:50 72° W 18:45:19 10° S
Cosmos 2344 4.2 18:32:50 10° NW 18:41:37 72° NE 18:51:01 19° ESE
Aureole 2 Rocket 2.4 18:39:16 10° SW 18:42:17 62° WNW 18:42:23 61° NW
Cosmos 1455 2.9 18:39:58 10° NNW 18:43:43 55° W 18:47:27 10° S
Helios 1A Rocket 2.9 18:40:24 10° SSE 18:44:32 86° WSW 18:48:44 10° NNW
Cosmos 2195 Rocket 4.5 18:39:29 10° S 18:45:41 62° E 18:51:58 10° NNE
NOSS 3-1 (C) 3.9 18:38:29 10° NW 18:45:45 81° NE 18:51:58 20° SE
Cosmos 1689 Rocket 4.3 18:49:45 18° SSW 18:49:45 18° SSW 18:50:34 10° SSW
H-2A R/B 4.3 18:45:49 10° N 18:49:27 25° WNW 18:53:01 10° WSW
Cosmos 2263 Rocket 3.7 18:44:41 10° WSW 18:49:43 31° NW 18:54:29 11° NNE
Cosmos 1602 Rocket 3.4 18:45:51 10° S 18:50:08 65° E 18:50:10 65° E
USA 281 4.1 18:52:47 28° NE 18:52:51 28° NE 18:58:16 10° NNW
YAOGAN 1 3.1 18:49:16 10° S 18:53:33 59° W 18:57:51 10° NNW
ERS-2 2.5 18:55:04 41° NNW 18:56:06 60° WNW 18:59:41 10° SSW
Cosmos 1627 Rocket 4.4 18:51:18 10° S 18:57:26 67° E 19:03:40 10° NNE
Cosmos 990 Rocket 3.9 18:52:53 10° S 18:57:59 58° ESE 18:58:09 58° E
Cosmos 1703 3.5 18:55:15 10° S 18:58:23 57° S 18:58:23 57° S
Cosmos 1428 Rocket 4.4 18:53:29 10° S 18:59:41 65° E 19:05:57 10° NNE
ARGOS 3.1 18:55:06 10° SSE 19:00:28 84° WSW 19:05:53 10° NNW
CZ-4B R/B 3.6 18:57:49 11° N 19:00:28 25° WNW 19:03:16 10° WSW
USA 229 DEB 3.8 18:56:05 10° NW 19:03:20 79° NE 19:06:38 38° SE
USA 229 3.8 18:56:12 10° NW 19:03:25 78° NE 19:06:40 38° SE
COSMOS 2406 3.2 18:57:44 10° NNW 19:03:32 64° NE 19:04:20 57° E
Cosmos 1812 Rocket 3.7 19:01:19 10° NNW 19:05:44 73° W 19:10:04 10° S
USA 267 4.1 19:07:17 30° SE 19:07:17 30° SE 19:12:15 10° S
CZ-2C R/B 2.9 19:08:10 52° SE 19:08:10 52° SE 19:12:51 10° S
Meteor 2-15 Rocket 4.4 19:02:07 10° N 19:08:14 62° ENE 19:09:29 51° ESE
DMSP B5D1-3 4.4 19:06:53 32° NNE 19:09:20 89° ESE 19:14:26 10° SSW
SJ 16-02 1.9 19:06:01 10° SW 19:10:20 56° WNW 19:11:33 41° N
Ariane Rocket 4.3 19:12:51 27° N 19:12:51 27° N 19:15:22 10° N
Cosmos 1092 Rocket 3.9 19:05:35 10° S 19:11:47 83° W 19:17:59 10° N
CSL-04 Debris 4.5 19:08:22 10° S 19:13:43 66° WSW 19:19:06 10° NNW
CZ-3B R/B 3.1 19:15:32 10° WNW 19:18:24 47° SSW 19:20:06 35° SSE
NOSS 3-1 (A) 3.9 19:11:38 10° NW 19:18:55 82° NE 19:21:50 45° SE
Cosmos 1833 Rocket 2.6 19:15:18 10° NNW 19:20:41 71° NE 19:20:41 71° NE
Cosmos 1844 3.9 19:18:52 10° SW 19:24:30 69° WNW 19:26:16 44° N
Cosmos 2082 Rocket 2.9 19:19:47 10° NNW 19:23:58 40° NNE 19:23:58 40° NNE
ATLAS 2AS CENTAUR R/B 4.0 19:19:38 10° WNW 19:26:43 34° NNW 19:29:35 27° NNE
H-2A R/B 3.4 19:22:27 10° SSW 19:27:04 37° W 19:31:50 10° NNW
Cosmos 1898 Rocket 3.7 19:24:40 10° SSW 19:28:59 61° SSW 19:28:59 61° SSW
CZ-4 R/B 4.0 19:30:49 10° SW 19:33:53 20° W 19:36:56 10° NW
CZ-4C R/B 3.8 19:33:00 10° WNW 19:38:07 28° N 19:39:07 27° NNE
Cosmos 2098 Rocket 4.3 19:32:07 10° S 19:39:21 83° W 19:46:49 10° N
COSMOS 2455 3.9 19:33:52 10° WSW 19:39:33 41° NW 19:41:34 32° N
Cosmos 1844 Rocket 3.6 19:37:51 10° WSW 19:43:17 45° NW 19:44:59 35° N
USA 234 3.1 19:43:09 80° ENE 19:43:28 83° NNE 19:50:03 10° WNW
Cosmos 1818 4.1 19:39:29 10° WSW 19:44:48 52° NW 19:45:00 52° NNW
Cosmos 1553 Rocket 4.4 19:54:29 10° NNW 20:00:48 61° W 20:03:03 39° SSW
ATLAS 5 CENTAUR R/B 4.1 20:08:46 10° WNW 20:10:44 18° NNW 20:10:44 18° NNW
USA 281 4.3 20:39:39 37° NNW 20:39:39 37° NNW 20:43:20 10° NNW
ATLAS 2AS CENTAUR R/B 4.4 21:12:43 10° NW 21:17:01 28° NNW 21:17:01 28° NNW
